Wind_Speed
14 14 14 14 14 14 14 14 13 12 12 12 11 10 10 10 11 12 13 14 14 13 12 12 11 9 9 9 10 10 11 11 6 4 4 3 5 9 10 10 10 9 7 9 11 10 7 5 4 4 3 1 1 1 0 1 0 0 0 1 1 2 1 1 3 1 1 5 6 4 2 6 8 4 4 4 6 8 5 5 7 8 7 8 14 20 21 18
15 15 14 14 15 15 15 15 14 13 12 11 10 9 9 10 11 12 13 14 14 13 11 11 11 9 9 9 10 10 12 10 4 4 4 5 8 11 11 10 9 8 8 8 9 9 5 4 5 4 2 0 1 0 0 0 0 0 1 1 1 0 2 3 1 1 2 3 7 5 1 4 6 4 4 4 6 7 5 5 7 9 10 12 17 20 19 18
16 16 15 16 16 16 16 15 15 14 13 12 10 9 9 9 11 12 13 13 14 13 11 10 10 9 9 9 10 10 10 6 1 1 3 8 11 12 12 10 6 6 6 6 7 7 4 6 7 3 0 1 0 1 1 1 0 0 1 1 3 2 3 5 3 3 4 1 6 6 2 3 3 2 3 5 8 7 5 6 6 9 10 13 16 18 18 17
17 17 17 17 17 17 17 16 16 15 14 12 11 10 10 9 10 11 12 12 13 12 10 9 9 9 9 9 9 9 7 2 1 1 4 9 10 11 10 8 5 4 5 5 6 6 6 8 6 1 1 1 1 1 1 1 1 0 0 1 3 2 1 5 4 5 4 3 5 5 5 4 3 0 3 7 8 4 6 7 6 10 14 14 15 16 17 16
18 18 18 18 18 18 17 17 16 16 15 14 12 12 11 10 10 10 11 12 12 12 10 8 8 8 8 9 8 7 4 1 1 1 5 8 9 10 9 7 5 4 5 6 7 8 8 6 2 1 1 1 0 1 1 3 2 2 1 2 3 2 1 4 5 5 4 5 5 5 6 5 3 1 5 10 7 1 4 6 6 11 15 15 15 16 15 15
19 19 19 18 18 17 17 17 17 16 16 15 14 13 12 11 11 10 11 11 11 11 10 8 7 8 8 8 7 5 3 1 0 2 5 8 9 9 9 8 5 5 6 8 8 7 6 4 0 0 1 2 1 1 1 4 3 1 2 3 4 3 3 3 4 4 3 4 5 3 2 2 4 3 4 9 5 3 3 6 8 11 15 16 16 15 14 14
20 20 20 19 18 18 17 17 17 17 16 16 15 14 13 12 11 10 10 10 10 10 9 8 7 7 8 6 4 3 1 1 2 3 5 8 9 9 10 9 7 7 8 9 8 5 4 2 1 0 1 2 2 1 1 5 2 1 3 3 5 5 5 4 4 5 4 3 3 2 1 2 4 3 3 8 4 4 5 9 10 12 15 15 14 13 13 13
21 21 21 20 19 18 18 17 17 17 16 16 15 15 13 12 12 11 10 10 10 10 9 7 6 6 8 5 2 2 1 1 3 3 4 7 9 9 10 9 8 9 10 10 7 5 4 1 0 1 1 2 0 1 3 5 3 1 3 3 4 5 5 5 5 6 5 4 4 3 1 2 1 1 3 5 4 5 8 11 12 13 14 13 13 12 12 11
22 22 22 21 20 19 18 18 18 17 17 16 16 15 14 13 12 11 11 10 9 9 8 7 5 5 6 3 1 2 1 2 3 2 4 6 7 9 9 9 11 11 9 7 5 4 2 1 1 1 1 2 1 2 3 2 1 2 4 4 4 6 4 4 5 6 4 3 4 3 1 2 2 2 3 1 2 8 10 12 13 13 13 12 11 11 11 10
23 23 23 22 21 20 19 19 18 18 17 17 16 15 15 14 12 12 11 10 9 8 7 5 3 3 4 2 1 2 1 3 2 3 4 4 6 9 10 9 12 12 8 6 5 4 1 1 2 1 2 0 2 3 0 1 3 6 8 7 6 6 5 4 5 6 4 3 5 3 1 1 1 3 1 2 4 11 12 12 13 13 12 12 10 9 9 9
24 25 25 24 23 22 21 20 19 18 18 17 17 16 15 14 13 12 12 10 9 7 5 3 2 1 2 1 1 1 1 2 2 5 3 3 4 8 10 11 12 12 10 5 5 6 2 1 2 1 1 1 2 4 4 3 6 8 7 7 7 6 5 5 4 5 3 2 5 4 0 0 2 2 2 3 7 12 13 13 13 12 11 10 10 8 7 8
26 26 26 26 25 24 23 21 20 19 18 18 18 16 14 13 12 12 12 10 9 7 4 2 1 1 1 1 2 1 1 1 3 6 4 2 2 5 7 9 11 12 10 5 3 4 3 1 2 1 1 0 2 3 5 5 5 5 2 2 4 3 3 4 3 4 2 1 5 3 2 2 2 2 4 3 8 10 11 12 12 11 9 9 9 7 6 7
27 27 27 27 27 26 25 24 21 20 19 19 18 15 12 11 11 11 11 10 8 5 3 2 2 2 1 1 2 3 1 1 4 7 6 4 4 5 5 7 9 9 7 2 1 1 2 2 2 2 1 1 2 4 6 4 3 3 1 1 2 1 0 3 2 2 2 2 5 3 3 2 2 4 3 5 9 10 10 10 10 9 8 7 7 7 6 8
28 28 28 28 28 28 27 26 23 21 20 19 17 13 11 9 9 10 10 8 6 4 3 3 2 3 1 2 2 3 2 2 5 9 9 7 6 5 5 7 8 9 8 5 2 2 3 1 3 1 1 1 4 6 6 3 1 1 0 0 1 1 2 2 1 1 0 1 4 3 2 1 1 3 4 5 9 11 10 10 10 8 7 7 7 7 7 7
28 29 29 29 29 29 29 28 26 22 20 18 14 11 8 7 6 6 5 6 6 5 4 3 2 2 1 2 2 1 2 2 7 10 9 10 8 3 4 9 8 9 10 7 5 4 4 1 2 2 3 3 6 6 3 2 2 1 1 1 1 1 2 3 0 2 2 1 3 2 2 0 1 3 4 4 8 9 9 9 9 9 8 8 7 7 6 6
29 29 30 30 30 30 30 30 28 23 19 15 11 8 7 6 4 2 5 7 7 7 5 3 2 1 1 1 1 2 2 3 4 6 9 11 9 3 3 7 6 8 9 6 4 4 3 1 2 2 3 4 5 4 1 1 1 1 1 2 2 1 1 3 2 2 1 1 2 2 0 1 1 3 3 4 8 8 7 9 9 9 9 8 7 7 6 6
29 29 30 30 30 30 31 32 30 24 18 12 7 6 6 6 7 7 9 9 8 7 5 3 2 0 1 1 1 1 2 3 2 5 8 11 9 6 5 3 2 3 4 3 1 1 0 2 0 0 2 2 2 2 2 1 0 1 0 1 1 1 1 2 3 3 2 1 1 2 1 2 3 3 2 4 8 8 7 9 10 9 8 8 7 7 7 6
29 30 29 30 31 31 31 32 30 22 15 11 4 4 6 8 9 8 10 10 8 6 3 2 1 1 2 2 1 1 2 3 3 5 7 9 10 8 3 2 2 2 1 0 1 1 0 1 0 1 2 2 3 3 2 1 2 2 1 1 0 0 1 2 3 5 4 1 2 2 1 4 5 2 1 3 7 9 8 8 9 9 9 8 7 7 8 8
29 29 29 30 30 31 31 32 30 19 12 10 2 4 5 7 7 6 8 7 3 2 1 1 2 1 0 2 2 2 2 2 4 5 6 7 9 8 2 2 3 2 2 2 1 1 0 1 1 3 3 3 4 4 3 1 3 4 2 1 1 1 1 3 3 5 6 3 3 4 2 4 5 2 2 3 6 10 9 7 7 8 8 8 8 8 8 9
29 29 30 29 29 31 30 33 28 14 11 10 0 3 2 2 2 1 2 2 4 4 3 2 3 1 2 1 1 1 2 3 3 4 6 7 9 8 2 3 2 1 2 2 2 1 1 3 5 4 3 5 6 7 4 2 2 2 1 0 0 1 0 2 3 5 7 4 3 4 3 4 5 3 3 2 4 9 9 9 8 8 8 8 10 10 10 10
29 29 29 28 29 29 30 32 23 10 12 10 0 2 0 1 1 1 2 4 5 5 7 4 3 3 3 2 1 1 2 2 1 2 7 8 8 7 1 1 2 2 1 1 1 1 1 6 5 2 4 4 6 7 5 3 1 1 1 1 2 2 1 2 1 4 6 4 3 3 5 7 6 5 3 1 4 8 10 11 11 10 10 9 10 11 10 8
30 29 29 28 29 27 30 30 16 7 14 10 2 2 2 2 2 3 2 4 4 4 6 3 1 5 5 4 5 3 2 2 2 2 6 8 4 3 2 1 3 2 1 1 2 2 3 6 4 3 4 3 3 4 6 5 3 1 1 2 2 2 3 3 2 4 5 4 2 2 6 8 7 5 4 4 4 5 7 9 9 9 10 9 10 10 9 8
29 30 28 28 28 26 29 25 9 8 16 11 2 3 3 1 5 4 3 2 5 1 3 3 3 5 4 3 7 8 3 3 5 3 8 9 2 2 4 3 2 2 2 4 4 3 4 4 3 4 6 5 3 4 6 4 3 3 3 3 2 3 4 1 2 4 3 0 1 1 4 6 5 4 5 5 4 3 3 5 6 7 9 10 10 9 9 10
29 31 29 29 27 25 28 18 4 11 19 12 2 3 2 5 6 4 4 1 4 2 2 4 3 4 3 1 9 11 3 2 4 4 10 11 3 2 4 3 3 3 3 5 5 4 4 1 2 5 6 6 4 4 6 4 3 4 6 7 3 5 4 1 5 7 3 1 1 0 3 4 4 5 5 3 2 4 3 4 6 7 6 6 8 8 9 10
29 31 30 30 27 25 25 10 1 14 21 10 3 3 3 10 7 5 4 2 2 2 1 3 2 4 3 4 9 8 2 2 3 3 10 11 6 4 2 2 2 4 3 4 4 4 4 2 3 4 5 6 4 4 7 5 3 3 6 8 5 7 7 7 10 8 3 3 0 2 3 1 1 4 4 2 2 6 5 5 8 8 6 5 7 9 9 10
29 31 31 30 28 27 19 2 3 17 17 3 5 2 7 12 6 8 4 3 1 2 0 3 2 5 5 4 6 4 3 3 1 3 8 11 8 3 2 2 1 2 3 4 3 2 2 1 3 4 5 6 5 4 5 5 4 2 1 4 5 9 10 11 11 5 1 1 2 1 3 1 1 1 0 1 3 6 5 7 9 8 7 7 8 9 9 10
30 31 32 30 29 27 13 3 11 15 7 2 4 4 10 12 3 8 2 2 2 1 1 1 1 4 4 2 4 3 2 2 3 3 4 9 7 1 1 3 1 1 3 3 2 1 2 2 3 4 4 5 4 3 5 7 4 1 4 1 8 11 11 12 9 3 2 2 3 1 1 3 2 2 1 2 3 6 8 9 10 8 9 9 9 10 10 11
32 31 32 30 29 25 13 9 12 8 3 3 4 6 11 9 2 6 2 1 2 0 1 1 1 3 1 0 2 1 0 1 3 3 1 5 5 1 1 4 3 3 3 3 2 2 3 3 4 4 2 3 3 1 5 8 2 2 2 4 8 8 9 9 6 3 3 2 2 2 2 3 3 1 2 1 3 6 9 11 11 10 11 10 10 11 11 12
34 32 32 31 29 22 11 9 8 5 5 4 4 7 9 3 3 2 1 1 1 1 1 1 2 2 2 1 0 2 1 1 1 1 1 3 3 1 1 3 3 3 2 2 4 1 2 2 2 3 1 2 1 3 2 4 4 3 7 10 9 7 7 5 2 4 2 2 0 3 4 3 2 0 1 1 2 4 6 8 9 10 10 10 10 11 11 10
35 33 32 31 25 15 7 10 11 7 5 4 4 7 4 1 2 0 0 1 1 1 0 0 1 0 2 4 1 2 0 1 2 2 2 2 1 2 0 1 2 2 1 1 4 2 1 1 1 2 1 1 5 6 3 4 9 10 10 11 9 7 5 3 2 2 1 2 1 1 3 3 2 0 1 1 0 1 3 4 5 7 9 10 10 11 11 10
35 35 31 25 19 9 4 6 5 1 2 1 4 4 1 2 1 1 1 1 1 0 0 0 1 1 4 5 1 0 1 1 2 3 3 2 1 2 1 2 2 1 1 1 3 2 0 2 2 1 2 3 6 8 6 7 8 5 5 7 6 4 2 2 2 0 3 2 2 2 3 4 3 1 2 2 1 2 4 5 6 6 7 9 9 10 11 11
36 33 23 15 11 7 7 5 3 3 3 2 5 1 2 1 1 2 1 1 0 0 1 0 0 1 3 3 2 3 2 1 1 3 4 2 3 3 3 3 2 1 1 1 1 1 1 2 0 1 3 3 5 8 5 3 2 2 4 5 3 2 1 2 1 1 3 1 2 1 3 3 4 3 2 3 1 2 3 5 7 8 7 7 8 9 10 9
36 26 13 9 8 4 5 7 9 10 7 2 2 2 2 1 2 2 2 1 1 1 1 0 1 1 2 2 3 3 1 1 2 3 2 1 2 4 1 1 2 1 0 0 1 1 2 2 1 1 3 2 3 6 4 3 4 6 5 3 2 2 2 2 1 1 3 0 2 1 3 2 3 2 1 2 2 3 4 4 5 7 8 8 6 7 9 10
31 16 9 10 9 10 6 5 6 5 6 4 2 2 3 2 2 1 1 2 2 2 2 1 2 1 2 2 1 3 2 2 3 3 3 2 3 4 2 2 3 1 1 1 1 0 2 2 1 1 2 1 3 3 3 5 5 4 1 1 2 3 2 2 2 2 1 2 3 2 2 2 2 1 1 1 2 2 2 3 4 4 5 6 6 6 7 9
25 9 9 12 13 14 7 5 6 7 8 4 2 2 3 2 1 0 0 2 2 3 3 1 1 0 2 1 2 2 2 1 2 3 3 3 3 3 3 4 5 3 2 2 2 0 1 1 0 1 0 1 2 1 2 4 5 2 0 1 2 1 1 0 0 0 1 1 2 2 2 2 1 1 1 1 1 2 2 3 2 3 2 2 3 4 5 7
21 7 8 14 15 14 5 8 9 8 6 2 3 3 2 1 1 1 0 2 2 4 5 2 1 1 1 1 1 1 0 1 2 3 2 2 2 2 2 2 6 9 6 2 2 1 1 1 1 1 1 2 1 3 2 1 3 3 2 3 1 1 2 2 2 1 1 2 1 1 3 2 1 2 2 2 3 3 2 2 2 4 3 2 1 2 3 5
21 7 7 15 16 10 9 9 7 4 2 1 3 2 1 1 2 2 0 2 2 2 4 2 1 0 1 1 1 1 1 1 2 3 2 1 2 3 3 2 5 11 8 2 1 1 1 0 2 1 2 4 2 3 6 4 0 2 3 4 4 1 0 1 1 1 1 3 1 1 4 3 2 2 1 3 4 3 2 2 2 2 3 3 3 2 2 3
18 5 5 13 14 11 10 8 4 2 1 2 1 0 1 1 1 2 1 2 2 1 1 2 1 1 0 1 1 2 3 3 3 3 3 2 2 3 5 3 4 6 5 2 2 1 1 2 1 1 2 3 2 2 6 6 4 2 3 5 2 1 1 1 1 1 1 2 1 1 3 3 4 3 1 4 6 4 2 1 1 2 3 3 3 3 3 2
12 3 2 9 11 10 13 11 6 2 2 2 1 1 1 2 2 3 2 1 1 1 1 2 1 1 1 1 1 2 3 3 4 3 2 3 3 3 4 3 2 2 2 4 4 1 1 2 1 2 1 0 1 2 3 4 5 4 5 4 1 1 1 1 0 0 1 1 1 1 2 2 3 2 2 5 7 5 3 1 1 2 2 2 3 3 4 3
6 1 1 6 11 13 15 9 3 1 2 1 1 1 0 2 3 3 3 2 2 2 1 1 0 1 1 1 2 1 1 2 4 3 2 3 3 3 4 4 3 2 0 3 2 1 1 2 1 2 1 2 2 1 2 2 4 3 4 4 1 2 1 1 1 1 1 1 1 2 2 1 1 1 3 5 6 5 2 1 1 2 2 2 3 4 4 4
3 1 1 7 13 13 11 4 1 2 1 1 1 1 1 2 3 4 2 3 3 3 2 2 2 2 2 1 2 1 0 1 3 2 2 4 4 4 3 4 5 5 4 4 3 2 2 1 1 1 1 2 0 2 2 2 0 1 3 3 3 4 3 2 1 0 1 1 1 1 3 2 2 1 3 2 3 3 1 1 1 2 3 3 3 4 5 4
2 2 1 7 13 10 5 1 1 1 1 1 0 2 2 2 3 3 2 0 3 2 1 2 3 3 3 3 2 2 1 1 3 2 3 4 5 4 1 1 6 7 5 4 2 1 1 1 2 1 0 1 3 4 1 2 1 2 1 1 3 3 2 3 2 2 2 0 0 0 2 1 2 1 2 1 1 1 1 2 1 2 2 2 3 4 4 4
1 3 3 7 12 7 2 1 0 0 1 0 1 2 2 2 2 2 2 1 2 1 1 2 3 4 4 3 2 2 3 3 3 3 2 3 4 3 1 3 6 5 3 2 2 2 1 1 2 1 0 0 1 2 2 1 2 2 2 2 2 1 1 1 1 1 3 3 2 2 2 1 2 1 1 1 0 2 2 2 1 1 1 2 3 3 4 4
2 3 3 8 12 4 1 0 0 1 1 2 2 1 2 2 2 3 3 2 2 0 1 2 3 3 2 2 2 2 3 3 2 2 2 2 2 1 2 4 4 3 3 2 3 4 2 0 2 2 2 2 2 2 2 2 2 1 2 2 2 4 5 4 3 1 2 2 2 2 3 0 2 1 1 2 2 3 3 2 1 1 1 2 2 3 4 5
2 2 3 6 11 5 1 1 1 1 1 2 2 2 1 2 2 2 4 4 3 1 2 3 2 2 2 2 3 3 3 3 2 2 1 2 2 1 2 3 1 1 2 2 4 5 2 1 2 3 5 4 4 3 2 2 2 1 2 3 3 5 6 4 3 2 3 2 2 3 2 0 1 2 4 4 4 4 3 3 1 0 1 2 3 3 4 4
2 1 1 3 6 4 2 1 2 0 1 1 1 1 2 2 2 2 2 3 2 2 4 4 2 2 2 2 3 4 4 3 2 1 1 2 2 2 1 2 0 1 5 6 6 4 2 1 1 2 4 4 3 2 0 1 3 3 3 5 4 4 4 4 2 2 2 3 4 5 2 2 2 3 4 5 5 5 4 2 2 1 1 1 2 2 3 3
0 1 2 2 2 2 1 2 3 2 1 1 1 1 2 3 3 2 1 1 2 3 3 3 1 0 1 2 3 3 2 1 1 1 2 2 1 1 0 1 2 3 6 6 2 1 3 2 3 3 2 1 1 2 1 1 3 4 5 7 6 5 6 5 4 2 4 4 4 4 3 3 5 2 3 4 4 4 3 2 2 2 2 1 1 2 2 2
1 0 1 1 1 1 0 2 4 3 2 2 1 2 2 2 2 2 1 2 3 3 2 1 1 1 2 2 3 2 1 1 1 1 2 1 1 2 2 2 2 1 3 2 1 1 3 2 2 3 1 0 1 1 0 1 1 2 4 6 6 7 8 8 5 4 7 5 3 2 6 6 5 2 0 1 1 1 0 2 2 2 3 2 1 1 1 2
0 0 1 0 2 1 2 4 4 3 3 2 1 2 2 2 1 1 2 3 3 4 2 1 3 6 4 2 3 1 0 1 1 0 1 1 1 2 2 2 2 0 2 3 1 1 1 2 2 3 2 2 1 1 1 1 2 2 2 3 5 7 9 8 4 5 7 4 2 2 6 7 4 1 2 1 2 2 2 3 3 3 3 2 2 2 2 3
1 1 1 0 2 2 2 3 2 2 2 1 2 1 1 2 2 2 2 3 2 3 3 3 8 11 6 1 2 2 1 2 2 1 1 1 1 1 2 2 2 2 2 2 2 1 1 2 3 2 2 3 1 1 1 1 2 3 2 1 3 5 6 6 4 4 5 4 1 3 4 5 2 2 3 2 2 3 4 3 2 2 2 2 2 3 3 3
2 1 1 1 1 1 1 1 1 2 2 1 2 1 1 1 1 4 4 4 3 4 3 5 9 8 4 1 2 3 3 4 6 6 5 4 3 2 1 2 1 3 3 2 1 1 0 2 2 1 3 3 1 2 3 2 1 3 4 4 6 5 3 4 4 5 7 6 6 5 5 4 1 3 4 4 3 3 4 3 2 2 3 3 3 3 3 4
3 1 1 1 1 0 1 1 0 1 2 1 1 1 1 1 1 4 3 2 3 4 2 4 7 5 3 2 3 5 7 8 10 10 7 6 6 5 3 3 4 3 4 4 2 1 2 4 3 3 4 4 2 1 3 4 3 4 4 4 7 5 2 3 3 5 7 6 5 5 4 1 4 4 5 5 5 4 3 3 3 2 4 4 3 3 3 4
Wind_Direction
14 13 12 9 5 2 2 2 3 5 10 11 10 11 8 5 3 4 3 359 358 354 350 349 345 341 338 336 330 329 330 331 320 244 236 226 182 147 137 148 151 150 151 143 141 132 129 150 142 140 148 161 275 333 221 161 343 262 7 72 127 166 160 171 172 185 104 146 150 147 194 137 127 116 117 126 112 119 113 82 84 74 75 105 116 131 143 146
18 13 11 10 7 6 6 5 4 5 7 7 7 9 7 4 0 2 3 358 356 354 350 347 347 343 337 338 330 331 336 334 319 247 222 167 161 149 137 142 150 153 156 151 151 151 154 162 149 148 145 185 190 4 263 164 3 61 26 70 75 158 98 47 46 30 16 148 136 125 158 139 126 119 152 154 131 142 127 103 103 94 96 113 124 136 146 151
19 16 14 13 12 11 9 7 5 5 4 3 4 5 4 1 357 358 358 356 353 353 352 346 348 344 338 337 329 339 343 332 332 347 141 155 161 152 144 147 152 157 162 165 166 171 167 151 153 160 119 327 131 149 190 154 237 40 353 67 43 10 86 56 47 56 21 82 127 128 123 124 121 115 173 156 145 169 169 138 132 125 128 132 136 143 152 157
20 20 17 14 13 12 9 7 5 3 1 359 359 358 356 355 353 352 353 353 350 351 353 346 349 345 340 336 333 348 342 307 108 49 131 158 166 160 160 158 160 169 169 166 164 158 132 131 138 105 330 297 36 170 192 151 185 112 340 7 26 328 97 62 62 70 53 87 116 128 129 127 122 115 169 150 147 189 207 183 163 148 147 145 146 150 157 163
21 20 17 14 11 10 6 4 2 360 358 355 354 351 348 347 347 346 346 349 347 348 351 346 347 346 345 340 337 346 333 143 110 247 156 166 174 175 181 177 180 185 180 165 150 141 119 110 114 55 20 305 20 198 152 145 179 136 97 17 7 305 90 66 71 71 71 101 115 133 133 129 130 144 164 167 167 179 202 191 166 150 151 152 151 153 161 168
20 18 15 13 10 8 3 360 358 355 354 351 349 345 342 340 339 339 337 341 341 341 346 344 345 348 349 345 343 347 331 47 253 211 165 177 185 189 191 188 196 193 185 168 148 140 111 92 286 145 10 296 235 258 90 142 199 178 98 55 30 22 45 60 72 61 51 102 116 124 110 131 157 146 169 194 191 64 124 156 146 147 150 151 152 156 165 171
18 16 14 12 9 7 3 357 353 351 349 346 344 339 336 334 331 330 329 331 331 333 340 341 345 350 349 348 348 351 346 326 257 196 174 186 187 196 196 192 201 194 183 168 153 137 112 106 310 256 242 281 238 270 114 144 189 328 78 70 46 43 48 54 80 73 43 56 55 354 297 178 172 139 164 207 196 88 127 138 136 144 146 150 155 164 170 174
17 14 11 9 7 5 1 356 351 348 345 341 339 334 330 327 323 321 319 320 320 323 330 337 346 347 351 357 341 343 62 350 291 213 190 187 186 197 194 187 194 191 181 169 156 138 133 138 312 194 210 338 11 127 150 149 159 64 76 88 64 58 59 61 82 78 56 41 11 331 260 154 140 133 167 212 193 134 136 133 136 142 147 157 164 169 173 176
16 13 10 8 5 2 358 353 349 345 342 338 334 330 324 319 315 311 308 308 307 313 320 331 339 341 357 5 308 347 52 337 313 217 191 187 185 188 185 184 186 184 178 171 159 140 147 201 165 217 295 342 48 118 174 172 97 90 88 101 93 82 70 53 69 65 62 54 1 332 183 107 73 188 191 273 177 153 141 138 143 148 154 164 171 176 177 178
14 12 10 7 5 1 357 352 347 343 340 335 331 325 319 312 305 300 297 296 294 298 305 318 325 339 5 4 310 1 352 320 301 177 179 189 185 178 178 185 185 180 168 164 169 152 134 150 138 235 261 246 78 61 278 313 72 105 104 97 90 88 68 35 54 45 42 67 18 358 154 87 93 207 210 46 148 156 145 145 150 156 162 167 174 180 182 184
12 10 9 7 5 2 357 351 347 343 338 334 329 320 312 303 295 292 288 286 285 285 287 294 290 311 15 28 317 7 331 312 197 165 163 193 194 182 181 181 181 177 165 166 200 197 210 110 126 185 214 152 120 73 62 93 105 116 116 96 79 87 77 35 43 31 13 88 27 8 303 34 136 211 328 67 154 158 147 152 158 163 166 168 176 179 184 188
10 8 6 5 4 2 358 352 348 343 338 333 327 318 307 295 288 284 279 278 276 272 267 241 210 196 90 189 222 210 298 299 186 165 139 138 168 175 182 180 175 175 168 162 196 210 262 246 187 254 354 167 162 104 99 114 111 117 141 106 85 103 90 25 22 10 340 98 17 344 205 171 118 3 344 123 153 152 147 154 162 167 166 170 178 180 188 190
7 6 4 3 3 1 358 354 349 343 338 333 328 319 306 290 279 273 269 269 262 252 240 185 181 171 140 278 202 178 267 285 181 167 151 139 138 155 176 183 182 184 184 176 72 21 323 227 215 309 352 116 115 109 123 126 112 113 81 66 104 147 97 25 4 338 338 50 4 315 210 160 86 17 24 142 151 149 149 157 167 169 167 174 183 187 193 193
5 3 2 1 1 360 357 354 350 343 338 335 331 324 313 295 277 268 260 252 233 212 192 161 156 163 184 290 175 178 273 256 191 180 172 166 155 151 170 182 194 207 221 252 283 353 11 144 186 240 344 44 114 127 126 111 90 127 161 158 114 331 15 34 325 224 119 11 355 326 233 152 90 39 55 145 162 161 157 162 172 172 172 180 190 196 197 198
3 1 360 359 359 358 356 354 350 342 338 338 335 334 331 320 302 276 239 209 185 172 159 141 134 156 263 294 179 239 282 203 199 196 193 184 167 152 194 195 204 218 231 253 266 280 308 292 167 129 71 91 139 142 124 93 86 46 279 266 33 11 59 58 99 178 150 21 4 335 243 131 77 49 55 145 171 174 166 165 176 178 181 187 193 203 204 202
1 359 358 357 356 356 355 353 350 341 337 341 344 353 360 1 14 82 139 144 147 144 136 126 123 162 302 48 125 278 240 193 196 197 203 199 181 137 169 195 216 231 236 256 276 274 284 30 94 87 96 129 147 141 125 154 134 69 305 314 10 26 112 93 106 179 190 44 42 6 312 121 21 29 61 139 175 187 176 170 182 184 187 194 197 205 207 202
359 357 356 355 354 355 353 353 350 340 337 346 356 16 30 52 74 100 116 124 132 124 113 115 103 19 294 80 143 202 200 208 183 178 196 201 190 149 126 151 200 236 234 244 292 278 130 69 58 169 97 120 159 171 186 265 333 109 154 309 349 344 13 103 127 168 201 340 85 43 40 219 295 354 78 154 177 191 190 181 186 188 191 198 202 208 209 209
357 355 355 353 352 352 351 351 348 338 338 350 10 59 62 83 88 100 116 115 120 116 92 114 136 280 196 183 216 190 211 233 193 174 178 187 190 179 149 100 115 111 102 184 357 19 141 43 303 176 131 150 173 191 221 46 35 35 17 335 319 345 59 124 132 153 169 170 152 126 101 225 259 319 110 163 178 194 202 191 190 194 197 200 205 213 213 214
355 354 353 351 350 351 350 350 346 337 340 352 27 113 85 98 96 107 121 110 123 213 312 160 198 314 177 197 274 281 249 190 174 166 155 167 178 174 147 73 110 114 120 172 150 28 355 117 195 217 187 167 178 214 237 110 44 29 40 5 344 357 75 124 122 151 173 172 180 189 200 217 231 225 167 157 179 199 205 197 197 199 201 205 209 214 214 217
353 352 351 350 349 349 349 348 344 336 347 355 343 155 100 101 90 109 155 185 222 250 272 200 189 273 311 246 273 255 152 137 155 159 156 160 151 142 94 41 92 102 134 182 171 57 335 210 226 235 162 155 194 218 218 114 65 40 71 90 270 263 97 118 123 160 182 191 193 204 235 232 232 225 199 162 182 201 205 203 205 204 204 207 211 215 213 216
350 349 349 349 348 348 348 347 344 341 356 358 130 170 144 126 32 346 306 264 232 229 245 229 190 243 260 224 211 153 114 119 93 122 153 153 144 146 115 20 143 134 126 209 154 81 233 225 222 164 137 168 197 203 194 173 160 307 304 265 229 230 116 73 105 160 186 215 194 193 241 237 234 233 214 198 200 204 208 210 211 208 208 211 212 215 212 208
348 347 347 347 346 346 347 346 345 353 359 2 75 100 127 134 328 292 282 289 269 219 232 245 242 261 256 237 226 187 95 119 137 138 159 149 148 178 150 121 173 155 113 179 164 154 222 239 232 166 153 138 134 172 188 203 219 230 254 241 242 174 124 81 82 148 183 231 208 176 240 242 236 236 227 221 220 216 214 217 220 211 208 212 212 211 206 199
346 345 345 346 344 345 346 346 351 358 357 359 26 104 115 23 318 264 198 282 292 231 200 214 216 234 237 248 209 179 156 164 164 188 175 160 160 189 156 155 169 134 148 187 186 179 204 246 255 184 162 148 147 171 176 187 216 206 204 244 249 160 173 125 125 159 156 355 29 149 246 259 244 231 228 228 236 255 229 215 224 220 215 215 212 208 203 200
345 343 344 344 342 343 345 344 355 355 353 347 296 149 101 342 330 227 187 287 287 280 221 206 209 214 210 179 172 169 169 173 172 181 172 166 146 142 165 157 150 168 189 192 187 207 220 205 113 137 150 174 174 162 179 195 229 211 207 235 233 170 188 65 132 154 140 107 32 333 248 255 247 237 224 208 237 253 234 211 215 219 221 217 210 206 205 206
344 342 341 342 341 341 343 338 307 344 342 334 222 177 332 337 335 200 197 335 256 283 277 200 215 209 181 130 159 166 132 168 212 179 168 171 153 140 162 132 176 210 188 168 172 227 246 186 147 153 162 185 181 182 198 208 262 243 208 230 226 165 145 119 141 151 155 189 89 323 265 203 174 240 228 161 214 229 218 219 222 214 204 201 210 209 204 208
343 341 339 340 338 338 344 336 305 333 333 321 173 225 327 337 330 186 187 358 241 283 213 172 198 181 160 126 157 169 143 169 243 147 166 175 159 139 160 136 240 234 156 158 186 243 259 120 155 181 172 177 198 221 194 192 242 298 324 234 183 146 134 136 156 166 154 145 69 320 274 318 98 169 247 345 253 234 227 227 228 219 205 197 207 211 202 204
342 340 337 337 336 339 345 289 311 325 320 203 197 288 328 337 312 180 201 351 198 264 143 186 330 164 165 152 160 170 170 137 104 130 174 180 163 95 203 171 196 211 149 169 204 172 170 142 140 162 154 171 209 235 185 182 210 341 7 175 148 141 143 148 161 159 99 109 90 136 259 304 286 107 74 313 267 238 236 233 227 220 215 206 203 210 206 202
341 339 336 334 331 333 325 289 304 310 269 253 258 300 328 332 193 176 282 306 161 53 141 151 73 139 117 72 144 116 68 75 131 153 219 183 173 43 234 204 201 183 158 203 239 109 166 185 161 149 123 189 230 304 174 166 155 351 36 116 129 132 139 145 149 109 112 177 144 144 193 267 278 128 130 237 251 239 235 232 228 220 214 208 204 209 209 204
340 339 336 329 325 326 313 279 281 279 278 270 268 309 328 328 162 157 321 209 161 15 139 121 136 139 52 105 176 20 48 20 118 114 66 166 186 15 215 203 182 168 141 233 258 241 216 236 161 147 143 215 130 41 187 157 98 126 120 104 104 106 107 114 118 108 128 249 235 147 202 258 292 186 138 174 233 253 250 238 233 227 219 212 207 209 208 204
339 339 335 326 320 322 307 276 271 274 273 249 284 322 329 144 154 193 270 210 342 34 149 209 170 146 114 140 231 345 34 337 55 93 107 136 118 42 19 140 126 168 157 245 256 257 302 321 163 179 187 159 96 69 35 102 116 140 127 105 103 100 101 86 53 81 198 234 86 104 226 259 300 237 172 215 177 291 295 289 262 240 231 223 215 210 206 202
339 340 334 322 313 303 273 271 268 203 163 218 340 347 139 108 49 196 179 349 344 65 31 50 129 134 140 151 190 133 150 333 83 143 162 153 125 105 188 190 131 174 204 226 245 258 140 163 189 201 124 116 104 78 56 92 115 143 135 122 115 92 104 117 82 208 237 204 84 3 243 231 259 239 166 207 245 274 274 295 296 275 249 234 224 217 211 206
342 342 336 327 317 274 233 224 225 224 219 322 2 28 151 131 217 213 263 338 25 38 12 61 125 124 142 149 163 155 162 178 145 168 169 169 182 174 205 213 184 216 237 228 249 284 187 164 321 35 137 157 126 98 82 97 122 186 156 148 137 94 150 173 158 224 240 224 60 320 233 219 257 261 218 229 283 305 281 288 293 291 279 257 237 225 216 211
346 347 351 360 360 325 266 244 249 256 248 253 34 82 109 160 205 213 279 321 41 1 345 4 353 39 146 170 167 159 155 169 183 191 168 139 198 199 218 210 193 208 219 19 330 270 177 125 26 133 152 209 176 136 146 176 193 189 168 168 164 137 183 190 159 253 262 239 76 190 229 245 264 262 246 262 324 331 310 308 298 289 281 272 260 239 223 214
350 356 12 15 16 3 331 242 233 233 201 184 122 112 129 178 219 232 247 297 342 318 326 1 352 10 168 206 194 178 194 186 170 170 164 162 201 212 209 184 194 175 100 200 237 270 200 150 138 199 146 179 213 182 151 149 167 187 124 303 198 165 220 232 197 230 249 107 99 156 216 250 259 76 56 311 342 339 332 342 324 299 280 272 264 248 232 218
352 7 18 14 9 356 339 185 150 138 159 162 104 137 172 191 252 311 229 308 312 310 328 6 3 229 184 267 302 216 221 212 155 157 171 183 202 211 198 186 193 186 156 200 200 90 278 245 119 282 311 143 196 170 101 127 143 143 48 244 253 185 160 65 24 15 46 146 151 179 231 268 273 257 260 245 178 83 35 15 352 347 346 290 260 241 234 223
356 24 24 8 2 1 32 131 125 133 159 154 129 172 215 229 245 168 99 317 313 322 322 323 137 171 185 227 247 168 61 50 149 176 186 200 223 219 221 198 184 189 185 184 201 158 283 320 38 348 48 44 245 151 100 325 150 135 188 185 73 22 128 116 107 59 350 242 189 170 250 261 251 239 204 192 174 121 64 40 37 14 16 21 341 279 250 238
354 24 28 6 8 33 81 99 100 113 130 127 143 175 243 245 211 197 311 318 306 331 317 311 62 145 196 199 211 136 126 132 156 196 186 179 223 198 213 242 184 195 200 193 234 220 220 208 54 28 102 61 339 129 84 28 24 160 181 147 116 90 65 90 146 122 205 251 216 190 272 287 270 261 139 168 202 167 106 65 72 40 32 35 11 341 289 254
344 356 30 17 28 55 56 38 14 353 71 119 146 222 235 234 209 225 290 324 282 310 306 272 327 7 149 185 182 141 173 180 158 184 178 179 234 172 176 207 180 197 213 187 205 224 230 224 93 109 148 96 320 186 100 56 21 36 124 125 133 207 162 108 183 162 211 266 232 184 281 284 241 250 178 183 201 190 168 108 77 64 50 30 7 355 335 288
340 340 45 15 18 18 4 353 335 332 96 133 218 183 224 274 260 238 246 327 267 245 280 266 258 335 282 222 216 158 181 182 151 172 187 183 213 174 178 212 169 177 209 177 186 134 78 256 168 128 169 150 270 225 168 105 66 68 116 122 2 337 90 108 133 247 253 263 279 235 263 249 221 239 226 193 190 190 185 164 51 43 46 19 1 357 351 341
352 4 94 350 344 343 343 341 336 30 86 148 231 154 271 280 277 261 223 201 235 229 267 273 184 291 287 266 266 219 183 177 159 177 198 182 205 207 206 205 148 108 132 166 178 146 136 263 198 123 172 226 185 172 227 156 116 141 165 156 129 96 102 148 110 17 297 201 218 268 276 277 109 184 215 190 180 181 176 170 15 30 40 22 3 357 357 358
338 12 66 346 339 336 340 353 62 44 90 133 232 218 265 283 288 295 255 192 215 232 258 240 225 274 291 278 274 243 167 182 174 192 205 193 213 219 209 191 153 140 145 156 170 188 181 220 195 153 161 197 174 21 309 276 69 176 199 181 154 133 148 187 164 149 311 288 201 253 291 311 71 159 229 182 159 164 173 249 317 36 27 12 6 3 3 358
311 12 7 348 344 338 345 56 76 6 161 124 338 237 279 308 279 291 326 211 219 226 247 240 230 234 236 246 262 241 233 216 175 195 219 207 210 217 246 146 147 143 143 146 142 150 156 114 126 121 73 264 330 349 304 237 130 94 43 141 151 145 162 206 223 183 152 130 34 221 288 308 95 156 240 173 106 141 204 264 313 41 22 10 8 2 360 356
12 329 295 346 350 338 351 90 59 342 151 298 312 230 236 279 262 272 316 311 249 220 196 246 227 216 224 229 237 235 224 213 186 193 225 226 210 210 209 156 148 141 141 133 127 144 154 108 112 97 11 247 321 12 68 120 151 136 73 98 153 152 93 118 138 145 167 174 168 195 241 237 99 104 245 231 242 213 208 237 279 340 14 26 15 356 350 347
342 293 273 347 355 345 197 41 112 142 7 318 314 287 226 229 246 275 292 287 282 242 246 258 229 226 250 213 214 242 211 209 227 224 222 220 205 126 140 178 167 155 172 170 162 168 183 207 147 151 168 164 168 168 142 164 206 191 95 109 129 112 107 110 107 123 211 185 175 230 243 209 93 110 223 215 216 232 213 187 241 304 1 10 5 357 350 344
314 251 234 339 3 31 116 5 36 150 349 325 317 344 324 253 235 269 285 272 258 242 258 268 243 250 272 222 224 248 227 221 242 241 232 216 231 32 109 178 192 190 193 120 131 146 154 186 162 165 184 192 196 204 211 183 170 134 122 141 135 130 136 134 118 179 224 170 171 229 242 22 116 174 218 214 209 233 215 167 172 34 35 357 348 352 354 354
340 357 287 328 13 43 86 26 16 31 7 332 297 325 310 292 287 275 250 235 250 272 257 264 286 284 267 237 234 239 231 224 217 226 267 223 221 9 77 173 100 133 132 111 113 122 110 141 161 173 196 206 203 195 270 163 156 157 163 160 156 149 137 123 133 204 191 148 189 225 245 306 268 192 214 219 211 225 218 163 147 134 103 10 345 344 352 2
5 340 350 343 359 34 95 62 29 16 355 304 290 319 289 296 324 327 209 201 302 314 265 244 264 306 281 266 247 235 217 196 194 217 247 232 212 349 271 150 96 116 120 108 86 95 124 165 174 169 202 244 191 134 120 207 172 159 159 159 165 159 147 168 209 188 139 159 227 219 179 238 269 250 228 233 218 227 231 177 147 131 122 103 329 317 337 355
338 327 26 344 307 321 20 3 9 357 315 261 255 296 280 295 345 353 321 300 318 341 336 218 171 42 317 272 244 237 175 171 204 231 235 226 160 147 133 93 77 116 131 123 345 64 145 170 168 167 174 161 174 137 107 227 152 144 162 159 161 167 177 201 217 168 169 212 268 156 165 210 255 275 216 263 240 236 213 114 118 108 117 141 240 276 288 310
317 197 90 317 291 268 282 319 332 314 295 264 242 272 268 283 333 349 295 297 320 354 7 290 311 332 328 253 218 222 141 182 201 192 242 252 201 163 156 119 99 124 153 145 93 13 179 147 140 172 150 127 174 238 207 209 163 167 195 162 159 180 198 216 219 176 192 238 320 135 190 222 257 23 102 70 47 72 84 100 123 131 148 172 208 250 270 285
344 327 32 323 282 270 275 298 299 290 296 251 226 243 267 270 311 337 275 244 281 342 10 347 327 327 325 280 179 139 59 349 289 284 242 244 273 196 191 186 149 147 158 149 115 347 251 151 136 165 148 135 120 87 142 220 188 182 212 182 160 185 207 222 219 184 202 236 200 165 216 240 268 66 112 119 109 128 133 137 157 173 184 190 210 251 272 282
332 305 337 288 276 284 270 284 316 293 275 224 207 201 236 231 327 326 274 216 232 290 339 346 330 323 310 293 102 89 14 316 274 266 262 253 274 299 274 287 218 163 158 155 143 118 164 133 121 157 181 172 132 119 149 138 132 206 237 225 197 192 198 208 200 190 202 199 170 179 231 244 144 110 131 147 151 152 153 165 182 196 212 215 217 241 271 290
337 273 261 275 264 286 276 251 233 255 258 266 243 255 263 236 322 313 280 216 237 256 288 338 325 317 297 311 20 357 320 293 270 268 268 258 268 276 261 263 261 216 168 157 154 104 136 144 141 175 193 167 121 125 153 146 181 227 239 221 204 195 189 207 212 213 213 194 170 200 230 134 117 149 162 159 163 171 181 191 192 196 209 215 220 235 267 286
Height
804 803 802 801 800 799 797 796 795 794 793 792 792 791 790 789 788 787 786 784 784 782 781 781 779 779 778 777 776 776 775 774 773 774 773 770 770 771 772 773 774 775 776 777 778 778 779 780 780 780 781 782 783 782 782 781 781 788 798 806 809 809 806 802 802 801 798 799 800 801 799 800 804 801 797 797 799 801 803 803 801 800 799 799 801 804 808 811
804 803 802 801 800 799 797 796 795 794 793 792 791 791 790 789 788 787 785 784 783 782 781 780 779 779 778 777 776 775 774 773 773 772 770 769 770 771 772 773 774 775 776 777 777 777 779 780 780 780 782 784 785 783 785 784 784 793 802 805 806 804 800 797 798 798 797 798 799 801 800 799 801 801 797 802 807 804 806 807 804 805 805 803 803 806 809 810
804 803 802 801 800 799 797 796 795 794 793 792 791 790 789 788 787 786 785 784 783 782 781 780 780 778 778 777 775 775 774 773 773 771 769 769 770 771 772 773 774 775 776 777 777 776 777 779 779 780 783 786 785 785 788 787 788 793 799 805 804 798 797 796 796 798 798 797 799 802 800 800 800 799 798 803 808 806 807 807 806 809 809 806 805 806 809 811
805 804 802 801 800 799 797 796 795 794 793 792 791 790 789 788 787 786 785 784 782 782 781 780 779 778 778 776 775 775 773 775 775 771 770 770 771 772 772 774 774 775 776 776 776 777 777 778 779 780 784 788 787 787 790 789 791 794 797 803 801 796 798 798 796 797 797 796 799 801 801 802 800 797 799 802 808 810 805 801 802 805 806 806 805 806 809 810
805 804 803 801 800 799 797 796 795 793 792 791 790 789 788 787 787 785 784 783 782 781 780 780 779 778 778 776 776 774 774 783 779 769 770 771 771 772 773 774 774 775 775 776 776 777 777 778 779 782 786 790 789 790 791 788 788 795 798 800 798 796 799 799 796 797 797 796 799 801 802 802 799 798 799 800 806 806 799 796 797 799 801 803 804 806 808 810
805 804 802 801 800 799 797 795 794 793 792 790 790 789 788 787 786 785 784 783 782 781 780 779 778 778 777 776 776 773 777 786 775 767 771 770 771 772 772 774 774 775 775 776 776 777 778 779 782 786 789 790 791 791 791 788 786 795 800 797 797 796 798 799 797 798 797 797 800 801 800 799 800 802 800 799 800 797 792 792 794 797 799 801 803 805 807 809
805 804 802 801 799 798 796 795 794 792 791 790 789 787 787 786 785 784 783 782 781 780 779 779 778 778 777 776 776 774 776 778 769 767 771 769 771 771 772 774 773 775 774 775 776 777 779 781 785 788 790 791 791 791 791 789 788 794 801 800 799 798 799 799 797 798 797 799 801 799 799 800 802 803 801 799 796 793 791 790 793 796 798 801 803 805 806 808
805 804 802 800 799 798 796 795 793 792 790 789 788 786 786 785 784 783 782 782 780 779 779 778 778 777 777 776 775 776 777 773 767 768 769 769 771 770 772 773 773 775 774 776 776 776 779 783 786 787 791 792 789 791 790 791 793 795 801 802 800 800 800 798 797 798 798 800 800 799 801 801 800 800 801 800 795 793 791 791 794 797 799 802 804 805 806 808
805 804 802 800 798 797 795 794 792 791 789 788 787 785 784 783 782 782 781 781 779 779 778 778 778 777 777 776 775 780 777 770 767 768 768 769 770 770 772 772 773 774 774 776 775 776 779 783 785 784 789 790 787 791 789 792 798 797 800 801 801 802 801 799 798 799 799 800 800 801 803 801 799 800 801 798 794 793 791 793 795 798 801 803 804 805 805 807
805 803 802 800 798 796 794 793 791 789 788 786 785 784 782 781 781 780 779 779 778 778 777 778 778 777 778 775 778 783 774 767 768 768 768 769 769 770 771 771 772 773 775 776 776 776 778 781 782 779 784 787 787 791 790 794 798 796 799 801 801 803 802 801 801 800 800 801 801 803 804 801 799 801 803 798 793 792 793 797 797 799 802 803 804 805 805 807
805 803 801 799 797 796 793 792 790 788 787 785 783 782 780 779 779 778 778 778 777 777 777 777 777 777 777 776 781 782 770 766 768 767 769 770 769 770 771 771 772 773 774 775 776 776 776 778 778 779 785 785 788 793 793 793 795 795 797 801 804 803 803 802 802 802 802 803 802 803 804 801 800 803 804 798 794 793 795 799 799 800 802 802 804 805 806 807
805 803 801 799 797 795 793 791 788 787 785 783 781 779 778 777 776 776 776 776 776 776 776 777 777 777 776 777 779 774 767 767 768 768 770 769 770 771 771 772 772 773 774 775 776 776 777 777 776 782 785 783 790 797 795 792 793 796 796 803 807 804 805 806 805 804 803 805 802 802 808 807 805 806 801 797 796 795 797 801 801 801 802 803 804 805 806 807
804 802 800 798 796 794 792 790 787 785 783 781 779 777 776 775 774 774 774 774 775 775 775 776 776 776 777 777 772 768 767 768 767 768 770 770 771 771 771 773 773 774 774 775 776 776 777 777 777 781 780 784 793 794 791 791 793 798 799 803 809 807 809 808 808 806 804 806 800 803 818 817 809 805 800 797 797 798 801 802 803 802 803 804 804 805 806 806
804 802 800 798 796 794 791 789 786 784 781 779 777 775 774 772 772 772 772 773 773 774 775 775 776 775 777 775 768 767 768 767 768 768 769 770 771 771 772 772 773 774 774 775 776 776 776 777 777 780 780 784 789 788 791 796 797 802 804 804 808 813 813 808 808 809 808 807 799 805 821 819 810 805 800 798 798 799 803 804 803 803 803 804 805 805 806 806
803 801 799 797 795 792 790 788 785 782 780 778 775 774 772 771 771 770 771 772 772 774 774 775 775 775 777 773 767 767 768 767 767 767 768 770 770 772 772 772 773 773 774 775 775 776 776 776 778 784 786 783 785 792 798 801 801 804 809 810 810 814 815 810 808 809 810 808 801 808 820 817 809 805 801 798 799 801 803 804 803 804 804 804 805 805 805 805
803 801 798 796 794 791 789 786 784 781 779 777 775 773 772 771 770 770 771 771 772 774 774 776 775 775 779 775 768 767 767 766 766 767 768 769 770 772 772 773 773 773 774 775 775 776 775 776 781 785 788 788 791 796 801 806 807 806 810 813 813 813 813 812 810 807 808 809 806 810 818 818 810 805 802 799 800 802 804 805 804 804 804 804 804 805 805 806
802 800 797 795 792 790 788 785 783 779 777 776 775 773 772 771 771 771 771 772 774 774 774 776 774 775 776 770 769 769 766 765 766 766 767 769 771 772 772 774 774 774 774 774 775 776 776 779 785 787 789 794 795 796 806 814 811 808 811 812 814 813 811 813 813 809 807 811 812 812 817 819 812 805 803 801 801 804 805 805 805 804 804 804 804 804 805 806
800 798 796 794 791 789 786 784 781 778 777 776 774 774 773 772 772 773 773 773 774 774 776 776 775 781 781 770 769 769 764 765 765 765 767 768 770 772 772 773 774 775 776 778 777 778 780 783 788 792 795 800 798 798 809 814 808 808 810 810 812 812 811 813 813 809 809 812 814 816 819 817 811 806 805 802 801 804 805 804 804 803 803 804 804 804 804 805
799 797 795 792 790 788 785 783 780 777 776 775 774 774 773 773 773 773 774 774 775 776 777 776 773 781 781 770 765 764 762 764 765 765 766 767 770 771 772 773 774 777 782 786 784 782 784 787 792 796 799 802 801 799 801 804 803 806 807 808 810 810 811 811 809 807 807 812 814 815 817 815 810 808 806 803 801 803 804 803 804 804 803 804 804 804 804 804
798 796 794 791 789 787 784 782 779 777 776 775 774 774 774 775 776 776 775 773 772 770 769 769 768 771 771 766 763 763 763 764 765 765 766 767 768 771 773 775 777 781 786 790 789 786 787 794 797 795 796 798 798 796 795 799 801 804 806 808 810 810 810 810 809 807 804 810 814 812 813 813 809 807 805 804 802 803 805 805 805 804 804 803 804 803 803 804
797 795 793 790 788 786 784 781 778 776 775 774 773 774 775 777 780 780 776 770 765 763 764 763 763 766 764 763 762 761 764 766 765 765 766 767 767 773 778 779 785 789 790 792 791 788 790 797 796 791 792 792 793 794 796 799 802 803 805 807 810 810 810 811 810 807 804 809 813 812 814 812 807 805 804 804 805 804 804 804 804 803 803 802 802 803 802 802
796 794 792 789 787 785 783 780 778 777 776 774 773 773 773 775 777 776 776 775 766 760 763 762 763 764 760 760 761 760 765 770 770 767 765 767 769 776 781 782 789 792 792 793 793 795 798 797 791 788 789 790 793 795 796 800 801 803 805 806 808 808 810 813 812 809 807 810 813 813 814 809 804 804 803 803 804 802 800 801 801 801 802 802 801 802 802 802
796 793 791 788 786 784 782 779 778 777 776 775 774 774 774 774 774 772 775 780 772 762 762 763 763 763 761 761 759 760 767 771 773 769 764 767 772 775 780 784 790 792 792 792 793 800 802 794 786 785 788 792 795 796 797 800 800 802 804 806 807 807 809 813 815 813 809 810 813 813 813 808 803 804 804 802 801 801 800 799 799 799 800 800 799 799 801 802
794 791 790 787 785 783 780 779 778 777 776 775 775 774 775 774 773 773 774 779 777 765 759 759 759 759 760 757 755 759 767 767 768 767 762 766 773 775 778 783 789 792 791 790 791 796 796 788 784 786 789 791 795 798 798 799 799 800 801 802 803 806 809 812 814 814 812 813 811 812 816 810 805 807 805 802 803 802 801 800 800 799 798 798 797 797 798 799
793 791 788 785 784 781 779 778 776 776 775 774 775 774 775 774 772 774 775 782 783 769 759 758 757 756 753 753 755 757 763 765 763 762 759 762 769 775 778 780 785 791 790 791 793 793 789 784 784 788 791 791 793 797 795 795 797 797 796 795 795 801 809 813 814 814 818 821 814 815 824 817 806 808 806 803 805 804 801 801 800 798 798 799 799 797 797 798
792 790 786 785 783 779 778 776 776 776 775 774 774 774 774 773 773 773 777 790 789 771 764 762 760 757 751 755 756 755 767 769 759 757 758 760 762 769 779 782 783 787 789 790 791 790 787 784 785 788 790 792 793 792 791 791 796 797 795 793 793 798 806 813 814 812 819 825 818 816 826 823 809 806 810 809 810 806 802 801 799 797 798 799 799 797 796 796
791 788 785 784 781 779 778 776 776 776 774 774 773 773 774 772 773 772 781 802 795 771 766 765 761 757 753 756 754 760 777 772 759 759 758 760 761 763 776 784 784 785 785 788 792 789 785 786 788 786 787 791 790 788 787 787 792 797 796 794 795 799 804 809 809 810 817 822 820 817 821 826 817 809 813 814 812 809 804 801 798 796 796 795 796 795 793 794
789 787 784 782 780 780 778 776 776 774 773 773 772 773 773 771 773 773 790 813 795 766 763 762 756 753 752 755 755 762 770 765 767 769 757 758 763 765 777 781 780 782 781 787 794 788 783 785 786 784 787 789 785 785 784 783 792 799 796 794 795 798 802 803 804 811 817 819 824 822 820 828 821 807 810 813 810 808 803 799 796 794 793 793 793 793 791 791
787 785 782 779 777 777 776 775 774 772 771 771 772 773 771 772 773 778 800 811 785 761 761 758 755 756 756 759 761 763 763 762 770 768 758 761 763 764 775 776 775 781 780 784 787 783 780 780 777 779 784 785 784 788 785 783 793 798 793 793 797 800 802 804 805 810 816 820 826 826 822 828 821 803 805 811 808 805 799 794 792 790 790 790 790 790 789 789
784 782 779 775 774 774 774 773 770 770 770 770 772 771 770 773 778 796 815 803 777 766 761 758 761 762 763 767 769 767 766 766 766 764 764 767 763 764 770 770 772 780 782 783 783 779 778 776 775 776 779 780 783 789 788 784 788 791 792 795 801 803 802 806 807 807 820 828 826 826 824 827 825 807 801 805 802 799 796 792 790 789 789 788 787 787 787 787
780 778 776 772 770 771 772 771 767 768 769 769 771 769 771 779 790 812 815 788 774 772 764 764 767 764 766 771 773 770 770 769 766 768 771 771 770 772 774 775 777 782 786 785 782 779 779 779 778 774 773 777 782 788 790 787 786 791 793 795 805 812 810 813 814 814 829 834 827 827 826 828 829 811 797 797 795 794 795 793 791 789 788 787 785 784 784 784
777 774 771 769 768 768 769 768 766 767 768 768 770 769 777 793 804 809 797 778 779 778 768 770 770 766 768 771 772 772 772 772 769 770 774 775 778 777 778 781 781 788 795 791 785 781 778 778 777 774 773 774 779 790 797 793 790 794 795 797 811 825 828 829 830 830 833 831 828 830 830 829 822 803 792 793 792 791 792 791 790 788 786 785 784 783 782 782
775 771 769 768 767 766 766 766 765 766 767 768 770 771 783 806 810 799 787 781 782 776 768 771 769 768 771 771 772 773 772 774 771 771 773 776 780 778 778 779 777 784 793 795 792 787 783 782 777 776 776 772 773 786 799 798 794 795 795 799 811 828 839 844 845 843 836 829 828 829 830 827 813 797 793 792 790 789 788 788 788 786 785 784 782 781 780 780
773 771 770 768 767 766 764 764 764 765 767 768 771 778 795 810 804 792 788 783 778 773 770 771 771 772 772 771 772 770 771 775 771 772 776 778 782 782 779 780 778 779 785 793 795 792 796 794 782 778 778 775 772 776 783 786 790 795 792 794 801 810 823 833 835 834 832 830 832 832 829 821 809 800 793 789 788 787 786 786 785 784 784 782 781 780 779 779
773 771 770 768 767 766 763 764 764 765 767 768 774 788 801 805 798 792 790 782 778 776 772 772 773 775 776 773 771 767 768 773 773 773 777 779 782 781 777 778 779 778 783 793 794 793 801 796 779 775 775 774 775 774 772 778 790 797 792 794 798 795 802 820 828 824 825 829 830 830 821 806 799 795 789 788 788 787 787 786 785 784 782 781 782 781 779 779
772 770 769 768 767 765 763 764 765 765 766 770 781 794 797 793 790 790 785 779 779 778 775 775 774 777 779 775 773 769 766 769 774 775 778 780 780 779 776 773 773 773 775 785 790 792 799 793 777 775 775 773 775 774 773 778 788 795 794 795 796 790 793 815 830 826 825 828 827 824 815 801 797 795 789 789 789 787 788 787 786 786 783 782 782 781 780 779
771 770 770 769 767 767 766 767 767 767 767 773 786 795 792 785 783 783 780 777 778 777 779 781 777 777 781 778 774 773 770 770 774 776 779 782 778 774 773 769 767 766 763 770 781 785 790 790 780 777 779 776 773 772 773 774 778 788 793 791 791 794 794 804 822 830 833 833 826 822 819 811 810 806 795 793 793 790 789 788 787 787 784 783 782 780 780 779
771 771 771 771 770 769 769 769 769 768 769 778 789 793 791 785 780 779 777 776 777 777 780 784 778 776 780 780 775 773 772 773 776 777 779 782 776 768 767 766 764 765 761 763 774 780 785 791 785 779 781 778 772 774 779 778 775 778 782 783 789 801 805 807 820 829 834 839 832 825 825 819 812 805 796 795 795 791 789 789 787 787 785 785 783 781 780 778
772 772 773 774 772 771 770 770 770 769 774 785 791 790 789 786 779 777 775 775 778 779 780 781 778 777 778 777 775 772 772 773 777 779 778 781 776 765 762 762 763 767 764 762 772 779 784 792 790 780 779 779 775 777 785 786 782 778 779 783 787 797 805 809 815 816 821 836 837 829 827 816 800 795 792 793 792 789 790 790 788 787 786 785 784 782 781 780
775 775 777 775 772 772 770 769 771 773 780 790 792 789 789 785 777 773 772 773 775 776 778 780 780 779 776 773 773 772 771 772 774 777 776 776 773 765 760 759 762 767 767 765 770 776 782 791 793 783 778 781 782 781 783 783 785 785 786 791 794 799 804 807 814 816 815 827 836 835 830 810 791 790 790 788 789 788 789 790 788 788 786 785 785 783 782 782
778 779 779 774 772 772 770 771 777 781 785 791 791 788 786 781 776 773 770 771 772 770 773 776 777 777 775 774 773 771 771 773 772 774 774 771 770 766 758 754 758 764 767 768 770 774 779 786 790 787 784 785 784 781 781 780 781 782 783 787 790 796 802 809 822 825 817 820 826 831 830 807 788 791 790 786 787 788 788 789 788 787 786 786 785 784 784 782
782 783 779 775 774 771 771 777 786 787 786 786 786 784 782 778 777 775 771 771 772 770 770 773 773 775 774 772 772 770 770 771 772 773 770 766 765 762 755 752 754 757 762 769 771 770 774 780 787 792 789 787 784 781 782 782 780 780 782 784 785 788 793 803 818 821 820 825 821 823 827 806 787 791 790 787 789 788 788 788 787 787 787 786 786 785 784 783
788 786 778 774 774 772 775 783 788 787 785 783 782 781 780 779 778 776 773 773 773 771 773 772 770 771 770 769 770 770 769 769 770 768 766 764 760 755 754 753 753 754 758 768 771 770 774 781 790 796 791 785 781 780 780 780 780 782 785 787 788 788 789 795 803 806 814 824 820 823 829 806 786 790 791 789 790 788 788 788 787 788 786 786 788 786 785 784
795 791 781 776 774 772 779 787 788 788 787 785 783 780 778 778 777 776 776 775 772 772 774 771 768 768 767 768 768 768 768 769 768 764 763 764 758 752 753 752 753 755 756 761 763 765 775 784 790 799 803 799 794 792 788 783 782 783 788 792 791 790 793 796 801 804 810 817 815 819 823 801 786 792 790 788 790 788 787 787 786 788 788 788 788 787 786 785
795 791 785 779 774 774 782 787 788 790 790 789 787 783 780 778 774 773 775 774 771 771 772 769 766 765 766 767 767 766 764 766 767 764 762 763 757 752 754 753 753 753 753 755 753 756 773 784 785 794 808 812 809 803 794 786 784 786 790 794 792 791 793 795 801 808 812 819 818 813 810 796 786 790 789 787 790 788 786 787 786 788 789 789 789 788 787 787
796 793 789 783 778 779 785 788 788 790 791 792 790 785 784 782 775 772 773 773 771 770 770 767 764 765 768 768 768 768 764 762 765 764 762 762 757 754 755 754 753 752 753 754 752 757 775 785 782 784 790 793 792 790 788 785 785 788 790 792 792 792 792 792 801 806 806 816 817 805 800 798 789 788 788 786 787 787 786 786 787 788 789 789 789 789 788 787
799 799 797 794 789 786 788 789 790 791 792 793 792 787 786 784 779 775 772 772 771 770 769 767 766 768 771 770 769 768 766 764 764 763 763 761 757 756 755 753 753 753 753 754 755 761 773 781 783 782 781 782 783 784 787 785 783 785 788 790 792 793 792 791 797 800 799 810 812 799 799 804 792 784 786 785 785 786 785 786 787 788 789 789 789 789 787 787
799 799 800 800 798 795 793 792 793 793 792 792 792 789 787 785 784 781 776 772 770 769 770 770 768 769 772 773 771 768 766 766 765 764 763 761 759 758 755 754 755 754 754 757 758 760 767 777 784 784 782 786 788 788 787 785 784 784 784 786 789 792 792 790 793 795 794 800 800 794 798 800 788 782 784 784 784 786 786 786 787 788 789 790 790 789 787 787
799 800 799 799 800 799 797 795 795 795 792 791 791 790 788 787 786 784 780 777 774 771 771 773 771 768 770 773 771 768 768 768 767 765 763 762 760 759 758 759 757 754 754 758 760 760 765 776 786 785 783 786 789 789 788 785 785 785 783 784 787 789 788 787 790 793 793 794 795 796 799 794 784 782 784 785 787 787 787 789 788 789 790 790 790 789 787 787
802 801 800 800 799 798 797 796 796 794 792 791 791 789 788 788 787 785 781 780 779 774 772 775 774 768 769 770 768 768 768 769 769 766 764 764 762 759 758 757 756 757 757 758 762 762 765 779 787 782 783 788 788 789 790 787 785 784 784 786 789 790 790 790 792 795 796 798 799 800 799 791 784 785 788 789 789 788 788 790 789 789 790 789 790 789 787 786
805 804 803 802 800 798 798 796 797 796 793 791 789 788 788 788 787 786 780 775 776 774 772 775 775 770 768 766 766 767 766 767 767 763 761 762 761 758 758 755 754 757 758 760 763 761 765 781 786 781 786 792 789 791 792 787 786 787 785 786 788 789 790 790 790 790 790 792 797 800 795 786 784 787 790 790 789 788 789 789 789 789 789 789 790 789 787 786
806 805 804 804 800 798 798 797 797 798 793 790 789 788 788 787 785 786 782 774 771 771 770 773 774 772 769 765 765 765 763 762 761 757 756 757 756 756 756 754 752 754 757 760 763 763 767 776 780 782 789 792 793 795 790 787 794 795 784 778 781 784 787 787 786 786 784 784 790 792 785 781 784 787 788 789 789 789 790 788 787 788 788 788 788 787 786 785